Regional Weather Roundup
Issued by NWS Sterling, VA

Home | Current Version | Previous Version | Graphics & Text | Print | Product List | Glossary On
Versions: 1 2 3 4 5 6 7 8 9 10 11 12 13 14 15 16 17 18 19 20 21 22 23 24 25 26 27 28 29 30 31 32 33 34 35 36 37 38 39 40 41 42 43 44 45 46 47 48 49 50
000
ASUS41 KLWX 040910
RWRLWX

REGIONAL WEATHER ROUNDUP
NATIONAL WEATHER SERVICE BALTIMORE MD/WASHINGTON DC
500 AM EDT FRI SEP 04 2015

Note: "FAIR" indicates few or no clouds below 12,000 feet
with no significant weather and/or obstructions to visibility.
 TC=TEMPERATURE CELSIUS

 * =Non NWS site. Station does not report precipitation (e.g. rain,
    snow, etc.), thunder, or fog.

DCZ001-MDZ009-015-VAZ040>042-051-053>054-041000-
WASHINGTON METRO

CITY           SKY/WX    TMP DP  RH WIND       PRES   REMARKS
WASHINGTON NAT PTCLDY    76  69  79 N3        29.92S
DULLES         PTCLDY    73  67  81 NW5       29.94R
ANDREWS AFB    CLEAR     71  68  90 N3        29.92R
FT BELVOIR     CLEAR     69  68  95 CALM      29.92S FOG
QUANTICO       CLEAR     74  69  85 NW5       29.92S
COLLEGE PARK*  PTCLDY    72  70  94 CALM      29.92R
LEESBURG*      PTCLDY    72  72 100 NW8       29.95S
MANASSAS*      CLEAR     70  70 100 CALM      29.93S
GAITHERSBURG*  PTCLDY    72  66  83 CALM      29.98R

$$

MDZ006>007-011-014-041000-
BALTIMORE METRO

CITY           SKY/WX    TMP DP  RH WIND       PRES   REMARKS
BWI AIRPORT    PTCLDY    73  69  87 CALM      29.91R
MD SCIENCE CTR   N/A     79  67  66 MISG      29.92R
ANNAPOLIS      CLEAR     77  73  87 N6        29.90R
FORT MEADE*    CLEAR     66  64  94 CALM      29.94R

$$

MDZ012-015-019>023-041000-
MARYLAND EASTERN SHORE

CITY           SKY/WX    TMP DP  RH WIND       PRES   REMARKS
OCEAN CITY     CLEAR     71  69  93 CALM      29.90R
SALISBURY      PTCLDY    70  69  97 CALM      29.90R FOG
BAY BRIDGE AP*   N/A     77  72  83 N3        29.91R
CAMBRIDGE*       N/A     72  68  88 CALM      29.90R

$$

MDZ017>025-041000-
SOUTHERN MARYLAND

CITY           SKY/WX    TMP DP  RH WIND       PRES   REMARKS
PATUXENT RIVER CLEAR     69  68  96 W3        29.90R
ST INIGOES     CLEAR     71  69  93 CALM      29.90S FOG
LEONARDTOWN*   NOT AVBL

$$

MDZ003>005-041000-
NORTH CENTRAL MARYLAND

CITY           SKY/WX    TMP DP  RH WIND       PRES   REMARKS
FREDERICK*       N/A     68  68 100 CALM      29.97S FOG
HAGERSTOWN APT CLEAR     72  67  84 CALM      29.97R
WESTMINSTER*   PTCLDY    72  66  83 N3        29.96R

$$

MDZ501>502-041000-
WESTERN MARYLAND

CITY           SKY/WX    TMP DP  RH WIND       PRES   REMARKS
OAKLAND*       CLEAR     63  61  94 W3        30.10S
CUMBERLAND*      N/A     68  68 100 CALM      30.03S

$$

VAZ025>031-041000-
SHENANDOAH VALLEY

CITY           SKY/WX    TMP DP  RH WIND       PRES   REMARKS
WINCHESTER*    CLEAR     68  68 100 CALM      29.97S FOG
FRONT ROYAL*   FAIR      68  68 100 CALM      29.96S
LURAY*         FOG       64  64 100 CALM      29.99R VSB 3/4
NEW MARKET*      N/A     64  64 100 CALM      29.99R
STAUNTON*      FOG       65  64  95 CALM      30.03R VSB 1
WAYNESBORO*    FAIR      67  65  93 CALM      30.02R

$$

WVZ021-048>050-054>055-041000-
EASTERN WEST VIRGINIA PANHANDLE

CITY           SKY/WX    TMP DP  RH WIND       PRES   REMARKS
MARTINSBURG    CLEAR     65  64  97 CALM      29.97S FOG
PETERSBURG*    FOG       65  65 100 CALM      30.02R VSB<1/4

$$

VAZ036>039-050-041000-
CENTRAL FOOTHILLS

CITY           SKY/WX    TMP DP  RH WIND       PRES   REMARKS
CHARLOTTESVILL CLEAR     69  67  93 CALM      29.95R FOG
CULPEPER*      CLEAR     68  68  99 CALM      29.95R FOG
ORANGE*        CLEAR     70  68  94 CALM      29.96R
GORDONSVILLE*  FAIR      69  68  98 CALM      29.94S FOG
WARRENTON*       N/A     67  67  99 CALM      29.93S FOG

$$

VAZ055>057-041000-
NORTH AND CENTRAL PIEDMONT

CITY           SKY/WX    TMP DP  RH WIND       PRES   REMARKS
FREDERICKSBRG* CLEAR     71  71 100 CALM      29.91S
STAFFORD*      CLEAR     68  67  96 CALM      29.96S FOG

$$

NCZ024-NYZ072-PAZ021-071-VAZ022-071-041000-
OTHER REGIONAL OBSERVATIONS

CITY           SKY/WX    TMP DP  RH WIND       PRES   REMARKS
NEW YORK CITY  CLEAR     77  66  68 VRB5      29.96R
PHILADELPHIA   MOCLDY    76  68  76 CALM      29.92R
PITTSBURGH     MOCLDY    71  65  81 CALM      30.03R
ROANOKE        CLEAR     69  65  86 CALM      30.03R
RICHMOND       CLEAR     75  69  81 N3        29.92R
RALEIGH        PTCLDY    69  67  93 CALM      29.94S FOG

$$

ANZ530>537-041000-
MARINE OBSERVATIONS

STATION/POSITION TIME  TEMP    WIND        PRES
                       AIR SEA DIR/SP/G
                 (UTC) (F)     (DEG/KT/KT) (MB)
THOMAS PT LIGHT  NOT AVBL
BALT KEY BRIDGE  0800   80     350/  5/  6 1012.4R
COVE POINT       0800   78     330/  3/  5 1013.1R
LEWISETTA        0800   77 82  300/  4/  5 1012.0R
SOLOMONS ISLAND  0800      82                N/A
PINEY POINT      0841           10/  4/  4   N/A

$$




USA.gov is the U.S. government's official web portal to all federal, state and local government web resources and services.